Regional Weather Roundup
Issued by NWS Northern Indiana

Home | Current Version | Previous Version | Graphics & Text | Print | Product List | Glossary On
Versions: 1 2 3 4 5 6 7 8 9 10 11 12 13 14 15 16 17 18 19 20 21 22 23 24 25 26 27 28 29 30 31 32 33 34 35 36 37 38 39 40 41 42 43 44 45 46 47 48 49 50
000
ASUS43 KIWX 251901
RWRIWX

KIWX WEATHER ROUNDUP
NATIONAL WEATHER SERVICE NORTHERN INDIANA
300 PM EDT MON SEP 25 2017

NOTE: "FAIR" INDICATES FEW OR NO CLOUDS BELOW 12,000 FEET WITH NO
SIGNIFICANT WEATHER AND/OR OBSTRUCTIONS TO VISIBILITY.

* THESE STATIONS ARE NOT UNDER NWS QUALITY CONTROL. THEY ALSO MAY NOT
  REPORT WEATHER SUCH AS PRECIPITATION OR FOG.

INZ001>027-252000-
NORTHERN INDIANA

CITY           SKY/WX    TMP DP  RH WIND       PRES   REMARKS
GARY*          MOSUNNY   91  46  21 SE7       29.98F
SOUTH BEND     MOSUNNY   86  54  33 SE7       30.01F
ELKHART*       MOSUNNY   86  55  35 CALM      30.01F
GOSHEN         SUNNY     87  52  29 MISG      30.01F
FORT WAYNE     MOSUNNY   88  59  37 NE3       30.02F
PERU/GRISSOM   SUNNY     88  56  32 E5        29.99F

$$
INZ028>050-252000-
CENTRAL INDIANA

CITY           SKY/WX    TMP DP  RH WIND       PRES   REMARKS
LAFAYETTE      SUNNY     87  59  38 MISG      29.98F
KOKOMO*        SUNNY     88  58  36 VRB6      30.01F
MUNCIE*        SUNNY     89  54  30 CALM      30.01F
INDIANAPOLIS   MOSUNNY   87  58  37 E6        30.00F

$$
MIZ043>046-050>051-056>058-064>065-071>073-077>080-252000-
SOUTHWEST LOWER MICHIGAN

CITY           SKY/WX    TMP DP  RH WIND       PRES   REMARKS
BATTLE CREEK   MOSUNNY   88  54  31 CALM      30.03F
BENTON HARBOR  PTSUNNY   88  53  30 CALM      30.00F
COLDWATER*     SUNNY     88  51  28 CALM      30.02F
HILLSDALE*     PTSUNNY   88  57  35 N3        30.03F
HOLLAND        PTSUNNY   88  55  32 SE6       30.00F
GRAND RAPIDS   CLOUDY    89  54  30 CALM      30.01F
KALAMAZOO      PTSUNNY   88  47  24 CALM      30.02F
STURGIS*       SUNNY     89  54  30 SE8       30.01F
THREE RIVERS*  FAIR      88  54  30 W5        30.02F

$$
OHZ001>008-015>018-024>025-252000-
NORTHWEST OHIO

CITY           SKY/WX    TMP DP  RH WIND       PRES   REMARKS
DEFIANCE       SUNNY     88  59  37 SE6       30.01F
FINDLAY        MOSUNNY   89  61  38 E5        30.01F
TOLEDO EXPRESS SUNNY     91  64  40 CALM      30.01F
TOLEDO METCALF SUNNY     90  62  39 NE6       30.02F
LIMA           CLOUDY    89  61  38 NE7       30.02F

$$
AND FOR LAKE MICHIGAN COASTAL AND OPEN LAKE BUOY OBSERVATIONS

STATION/POSITION TEMP    WIND        PRES    VSBY  WAVE
                 AIR SEA DIR/SP/G                  HT/PER
                 (F)     (DEG/KT/KT) (MB)    (MI)  (FT/S)
CALUMET HARBOR    84      50/  8/ 11 1014.7F
MICHIGAN CITY     85     150/  5/  8   N/A
BURNS HARBOR      79     330/  4/  6 1015.9F
SAINT JOSEPH      87     230/  1/  2 1017.3
SOUTH LAKE BUOY   72 71  130/ 10/ 12 1015.8          1/ 3
4 MI NW BRIDGMAN  83 73  360/  2/  2 1015.3F         0
MICHIGAN CITY     79 75   70/  4/  6   N/A           0

$$
&&



USA.gov is the U.S. government's official web portal to all federal, state and local government web resources and services.